Time,TemperatureF,DewpointF,PressureIn,WindDirection,WindDirectionDegrees,WindSpeedMPH,WindSpeedGustMPH,Humidity,HourlyPrecipIn,Conditions,Clouds,dailyrainin,SoftwareType,DateUTC
2013-01-29 00:03:00,53.5,46.8,30.29,WNW,299,0.0,0.0,78,0.00,RA,,0.00,WeatherDisplay:10.37,2013-01-28 23:03:00,
2013-01-29 00:08:00,53.7,47.0,30.29,NNE,25,2.3,2.3,78,0.00,RA,,0.00,WeatherDisplay:10.37,2013-01-28 23:08:00,
2013-01-29 00:13:00,53.8,47.1,30.30,ENE,58,0.0,0.0,78,0.00,,,0.00,WeatherDisplay:10.37,2013-01-28 23:13:00,
2013-01-29 00:18:00,53.7,47.0,30.30,East,84,6.0,6.0,78,0.00,,,0.00,WeatherDisplay:10.37,2013-01-28 23:18:00,
2013-01-29 00:23:00,53.2,46.5,30.29,ENE,58,4.6,4.6,78,0.00,,,0.00,WeatherDisplay:10.37,2013-01-28 23:23:00,
2013-01-29 00:28:00,53.0,46.3,30.29,NNE,18,3.5,3.5,78,0.00,,,0.00,WeatherDisplay:10.37,2013-01-28 23:28:00,
2013-01-29 00:33:00,52.8,46.1,30.30,NE,41,5.0,5.0,78,0.00,,,0.00,WeatherDisplay:10.37,2013-01-28 23:33:00,
2013-01-29 00:38:00,52.8,46.1,30.30,NE,51,6.9,6.9,78,0.00,,,0.00,WeatherDisplay:10.37,2013-01-28 23:38:00,
2013-01-29 00:43:00,52.6,45.9,30.30,ENE,67,6.9,6.9,78,0.00,,,0.00,WeatherDisplay:10.37,2013-01-28 23:43:00,
2013-01-29 00:48:00,52.6,45.9,30.30,East,80,6.0,6.0,78,0.00,,,0.00,WeatherDisplay:10.37,2013-01-28 23:48:00,
2013-01-29 00:53:00,52.7,46.0,30.30,East,81,6.0,6.0,78,0.00,,,0.00,WeatherDisplay:10.37,2013-01-28 23:53:00,
2013-01-29 00:58:00,52.6,45.9,30.30,East,87,6.9,6.9,78,0.00,,,0.00,WeatherDisplay:10.37,2013-01-28 23:58:00,
2013-01-29 01:03:00,52.5,45.8,30.29,ENE,60,6.9,6.9,78,0.00,,,0.00,WeatherDisplay:10.37,2013-01-29 00:03:00,
2013-01-29 01:08:00,52.4,45.7,30.29,NNW,348,3.5,3.5,78,0.00,,,0.00,WeatherDisplay:10.37,2013-01-29 00:08:00,
2013-01-29 01:13:00,52.3,45.6,30.29,ENE,57,4.0,4.0,78,0.00,,,0.00,WeatherDisplay:10.37,2013-01-29 00:13:00,
2013-01-29 01:18:00,52.4,45.7,30.30,NE,55,5.0,5.0,78,0.00,,,0.00,WeatherDisplay:10.37,2013-01-29 00:18:00,
2013-01-29 01:23:00,52.4,45.7,30.29,NE,48,6.9,6.9,78,0.00,,,0.00,WeatherDisplay:10.37,2013-01-29 00:23:00,
2013-01-29 01:28:00,52.5,45.8,30.29,ENE,61,4.6,4.6,78,0.00,,,0.00,WeatherDisplay:10.37,2013-01-29 00:28:00,
2013-01-29 01:33:00,52.4,45.7,30.30,East,79,5.8,5.8,78,0.00,,,0.00,WeatherDisplay:10.37,2013-01-29 00:33:00,
2013-01-29 01:38:00,52.2,45.5,30.30,ENE,77,8.1,8.1,78,0.00,,,0.00,WeatherDisplay:10.37,2013-01-29 00:38:00,
2013-01-29 01:43:00,52.1,45.4,30.29,ENE,62,4.6,4.6,78,0.00,,,0.00,WeatherDisplay:10.37,2013-01-29 00:43:00,
2013-01-29 01:48:00,52.1,45.4,30.29,ENE,72,4.6,4.6,78,0.00,,,0.00,WeatherDisplay:10.37,2013-01-29 00:48:00,
2013-01-29 01:53:00,52.2,45.5,30.29,ENE,67,6.9,6.9,78,0.00,,,0.00,WeatherDisplay:10.37,2013-01-29 00:53:00,
2013-01-29 01:58:00,52.1,45.4,30.30,East,87,5.8,5.8,78,0.00,,,0.00,WeatherDisplay:10.37,2013-01-29 00:58:00,
2013-01-29 02:03:00,52.0,45.4,30.29,ESE,103,4.6,4.6,78,0.00,,,0.00,WeatherDisplay:10.37,2013-01-29 01:03:00,
2013-01-29 02:08:00,52.1,45.4,30.29,ENE,66,3.5,3.5,78,0.00,,,0.00,WeatherDisplay:10.37,2013-01-29 01:08:00,
2013-01-29 02:13:00,52.0,45.4,30.29,East,89,5.8,5.8,78,0.00,,,0.00,WeatherDisplay:10.37,2013-01-29 01:13:00,
2013-01-29 02:18:00,52.0,45.4,30.29,East,91,6.0,6.0,78,0.00,,,0.00,WeatherDisplay:10.37,2013-01-29 01:18:00,
2013-01-29 02:23:00,52.0,45.4,30.29,ENE,76,5.8,5.8,78,0.00,,,0.00,WeatherDisplay:10.37,2013-01-29 01:23:00,
2013-01-29 02:28:00,52.0,45.4,30.29,ESE,103,3.5,3.5,78,0.00,,,0.00,WeatherDisplay:10.37,2013-01-29 01:28:00,
2013-01-29 02:33:00,52.1,45.4,30.30,East,100,5.0,5.0,78,0.00,,,0.00,WeatherDisplay:10.37,2013-01-29 01:33:00,
2013-01-29 02:38:00,52.1,45.4,30.29,ESE,121,5.0,5.0,78,0.00,,,0.00,WeatherDisplay:10.37,2013-01-29 01:38:00,
2013-01-29 02:43:00,52.2,45.5,30.30,ESE,122,3.5,3.5,78,0.00,,,0.00,WeatherDisplay:10.37,2013-01-29 01:43:00,
2013-01-29 02:48:00,52.2,45.5,30.30,SE,125,3.5,3.5,78,0.00,,,0.00,WeatherDisplay:10.37,2013-01-29 01:48:00,
2013-01-29 02:53:00,52.2,45.5,30.30,ESE,116,3.5,3.5,78,0.00,,,0.00,WeatherDisplay:10.37,2013-01-29 01:53:00,
2013-01-29 02:58:00,52.2,45.5,30.30,ESE,118,3.5,3.5,78,0.00,,,0.00,WeatherDisplay:10.37,2013-01-29 01:58:00,
2013-01-29 03:03:00,52.2,45.5,30.30,ESE,120,3.5,3.5,78,0.00,,,0.00,WeatherDisplay:10.37,2013-01-29 02:03:00,
2013-01-29 03:08:00,52.2,45.5,30.30,ESE,123,3.5,3.5,78,0.00,,,0.00,WeatherDisplay:10.37,2013-01-29 02:08:00,
2013-01-29 03:13:00,52.3,45.6,30.30,ESE,116,3.5,3.5,78,0.00,,,0.00,WeatherDisplay:10.37,2013-01-29 02:13:00,
2013-01-29 03:18:00,52.3,45.6,30.29,ESE,117,3.5,3.5,78,0.00,,,0.00,WeatherDisplay:10.37,2013-01-29 02:18:00,
2013-01-29 03:23:00,52.3,45.6,30.30,ESE,118,3.5,3.5,78,0.00,,,0.00,WeatherDisplay:10.37,2013-01-29 02:23:00,
2013-01-29 03:28:00,52.2,45.5,30.29,ESE,120,2.3,2.3,78,0.00,,,0.00,WeatherDisplay:10.37,2013-01-29 02:28:00,
2013-01-29 03:33:00,52.1,45.4,30.29,SE,125,2.3,2.3,78,0.00,,,0.00,WeatherDisplay:10.37,2013-01-29 02:33:00,
2013-01-29 03:38:00,52.1,45.4,30.29,SE,132,4.0,4.0,78,0.00,,,0.00,WeatherDisplay:10.37,2013-01-29 02:38:00,
2013-01-29 03:43:00,52.0,45.4,30.29,SE,125,1.1,1.1,78,0.00,,,0.00,WeatherDisplay:10.37,2013-01-29 02:43:00,
2013-01-29 03:48:00,51.9,45.3,30.29,SE,126,1.1,1.1,78,0.00,,,0.00,WeatherDisplay:10.37,2013-01-29 02:48:00,
2013-01-29 03:53:00,51.9,45.3,30.29,SSE,147,3.5,3.5,78,0.00,,,0.00,WeatherDisplay:10.37,2013-01-29 02:53:00,
2013-01-29 03:58:00,51.9,45.3,30.29,SE,141,2.3,2.3,78,0.00,,,0.00,WeatherDisplay:10.37,2013-01-29 02:58:00,
2013-01-29 04:04:00,51.9,45.3,30.29,SSE,147,4.0,4.0,78,0.00,,,0.00,WeatherDisplay:10.37,2013-01-29 03:04:00,
2013-01-29 04:09:00,51.9,45.3,30.29,SSE,149,3.5,3.5,78,0.00,,,0.00,WeatherDisplay:10.37,2013-01-29 03:09:00,
2013-01-29 04:14:00,51.9,45.3,30.28,SSE,152,3.5,3.5,78,0.00,,,0.00,WeatherDisplay:10.37,2013-01-29 03:14:00,
2013-01-29 04:19:00,51.8,45.2,30.29,SE,138,3.5,3.5,78,0.00,,,0.00,WeatherDisplay:10.37,2013-01-29 03:19:00,
2013-01-29 04:24:00,51.8,45.2,30.28,SE,140,2.3,2.3,78,0.00,,,0.00,WeatherDisplay:10.37,2013-01-29 03:24:00,
2013-01-29 04:29:00,51.8,45.2,30.29,SE,139,3.5,3.5,78,0.00,,,0.00,WeatherDisplay:10.37,2013-01-29 03:29:00,
2013-01-29 04:34:00,51.8,45.2,30.29,SE,141,3.5,3.5,78,0.00,,,0.00,WeatherDisplay:10.37,2013-01-29 03:34:00,
2013-01-29 04:39:00,51.8,45.2,30.29,SSE,149,3.5,3.5,78,0.00,,,0.00,WeatherDisplay:10.37,2013-01-29 03:39:00,
2013-01-29 04:44:00,51.8,45.2,30.29,SE,137,2.3,2.3,78,0.00,,,0.00,WeatherDisplay:10.37,2013-01-29 03:44:00,
2013-01-29 04:49:00,51.8,45.2,30.29,SE,138,3.5,3.5,78,0.00,,,0.00,WeatherDisplay:10.37,2013-01-29 03:49:00,
2013-01-29 04:54:00,51.8,45.2,30.29,SE,141,2.3,2.3,78,0.00,,,0.00,WeatherDisplay:10.37,2013-01-29 03:54:00,
2013-01-29 04:59:00,51.9,45.3,30.30,SE,135,3.5,3.5,78,0.00,,,0.00,WeatherDisplay:10.37,2013-01-29 03:59:00,
2013-01-29 05:04:00,51.9,45.3,30.30,SE,127,3.5,3.5,78,0.00,,,0.00,WeatherDisplay:10.37,2013-01-29 04:04:00,
2013-01-29 05:09:00,51.9,45.3,30.30,SE,133,2.3,2.3,78,0.00,,,0.00,WeatherDisplay:10.37,2013-01-29 04:09:00,
2013-01-29 05:14:00,51.9,45.3,30.30,SE,128,2.3,2.3,78,0.00,,,0.00,WeatherDisplay:10.37,2013-01-29 04:14:00,
2013-01-29 05:19:00,52.0,45.4,30.31,SE,125,3.5,3.5,78,0.00,,,0.00,WeatherDisplay:10.37,2013-01-29 04:19:00,
2013-01-29 05:24:00,52.0,45.4,30.31,ESE,121,3.5,3.5,78,0.00,,,0.00,WeatherDisplay:10.37,2013-01-29 04:24:00,
2013-01-29 05:29:00,52.0,45.4,30.31,SE,137,1.1,1.1,78,0.00,,,0.00,WeatherDisplay:10.37,2013-01-29 04:29:00,
2013-01-29 05:34:00,51.9,45.3,30.31,SE,137,2.3,2.3,78,0.00,,,0.00,WeatherDisplay:10.37,2013-01-29 04:34:00,
2013-01-29 05:39:00,51.9,45.3,30.31,SE,128,2.3,2.3,78,0.00,,,0.00,WeatherDisplay:10.37,2013-01-29 04:39:00,
2013-01-29 05:44:00,52.0,45.4,30.31,SE,133,3.5,3.5,78,0.00,,,0.00,WeatherDisplay:10.37,2013-01-29 04:44:00,
2013-01-29 05:49:00,52.0,45.4,30.31,SE,137,2.3,2.3,78,0.00,,,0.00,WeatherDisplay:10.37,2013-01-29 04:49:00,
2013-01-29 05:54:00,51.9,45.3,30.31,SE,145,2.3,2.3,78,0.00,,,0.00,WeatherDisplay:10.37,2013-01-29 04:54:00,
2013-01-29 05:59:00,51.9,45.3,30.31,SE,135,3.5,3.5,78,0.00,,,0.00,WeatherDisplay:10.37,2013-01-29 04:59:00,
2013-01-29 06:01:00,51.9,45.3,30.31,SE,137,4.0,4.0,78,0.00,,,0.00,WeatherDisplay:10.37,2013-01-29 05:01:00,
2013-01-29 06:03:00,51.9,45.3,30.31,SE,129,3.5,3.5,78,0.00,,,0.00,WeatherDisplay:10.37,2013-01-29 05:03:00,
2013-01-29 06:08:00,51.9,45.3,30.31,SE,133,2.3,2.3,78,0.00,,,0.00,WeatherDisplay:10.37,2013-01-29 05:08:00,
2013-01-29 06:13:00,51.9,45.3,30.31,SE,135,3.5,3.5,78,0.00,,,0.00,WeatherDisplay:10.37,2013-01-29 05:13:00,
2013-01-29 06:18:00,51.9,45.3,30.30,SE,135,3.5,3.5,78,0.00,,,0.00,WeatherDisplay:10.37,2013-01-29 05:18:00,
2013-01-29 06:23:00,51.8,45.2,30.31,ESE,120,4.6,4.6,78,0.00,,,0.00,WeatherDisplay:10.37,2013-01-29 05:23:00,
2013-01-29 06:28:00,51.8,45.2,30.31,SE,132,3.5,3.5,78,0.00,,,0.00,WeatherDisplay:10.37,2013-01-29 05:28:00,
2013-01-29 06:33:00,51.8,45.2,30.30,ESE,120,2.3,2.3,78,0.00,,,0.00,WeatherDisplay:10.37,2013-01-29 05:33:00,
2013-01-29 06:38:00,51.7,45.1,30.31,SE,127,3.5,3.5,78,0.00,,,0.00,WeatherDisplay:10.37,2013-01-29 05:38:00,
2013-01-29 06:43:00,51.8,45.2,30.31,ESE,113,5.0,5.0,78,0.00,,,0.00,WeatherDisplay:10.37,2013-01-29 05:43:00,
2013-01-29 06:48:00,51.8,45.2,30.31,SE,127,3.5,3.5,78,0.00,,,0.00,WeatherDisplay:10.37,2013-01-29 05:48:00,
2013-01-29 06:53:00,51.7,45.1,30.31,ESE,112,2.3,2.3,78,0.00,,,0.00,WeatherDisplay:10.37,2013-01-29 05:53:00,
2013-01-29 06:58:00,51.7,45.1,30.31,SE,134,4.6,4.6,78,0.00,,,0.00,WeatherDisplay:10.37,2013-01-29 05:58:00,
2013-01-29 07:03:00,51.8,45.2,30.32,SE,131,4.6,4.6,78,0.00,,,0.00,WeatherDisplay:10.37,2013-01-29 06:03:00,
2013-01-29 07:08:00,51.8,45.2,30.32,SE,145,2.3,2.3,78,0.00,,,0.00,WeatherDisplay:10.37,2013-01-29 06:08:00,
2013-01-29 07:13:00,51.7,45.1,30.32,SSE,149,3.5,3.5,78,0.00,,,0.00,WeatherDisplay:10.37,2013-01-29 06:13:00,
2013-01-29 07:18:00,51.8,45.2,30.32,SE,145,3.5,3.5,78,0.00,,,0.00,WeatherDisplay:10.37,2013-01-29 06:18:00,
2013-01-29 07:23:00,51.8,45.2,30.32,SE,135,3.5,3.5,78,0.00,,,0.00,WeatherDisplay:10.37,2013-01-29 06:23:00,
2013-01-29 07:28:00,51.8,45.2,30.32,SE,131,3.5,3.5,78,0.00,,,0.00,WeatherDisplay:10.37,2013-01-29 06:28:00,
2013-01-29 07:33:00,51.8,45.2,30.32,SE,136,3.5,3.5,78,0.00,,,0.00,WeatherDisplay:10.37,2013-01-29 06:33:00,
2013-01-29 07:38:00,51.8,45.2,30.32,SE,140,3.5,3.5,78,0.00,,,0.00,WeatherDisplay:10.37,2013-01-29 06:38:00,
2013-01-29 07:43:00,51.7,45.1,30.32,SE,145,3.5,3.5,78,0.00,,,0.00,WeatherDisplay:10.37,2013-01-29 06:43:00,
2013-01-29 07:48:00,51.7,45.1,30.32,SE,140,3.5,3.5,78,0.00,,,0.00,WeatherDisplay:10.37,2013-01-29 06:48:00,
2013-01-29 07:53:00,51.7,45.1,30.33,SE,132,2.3,2.3,78,0.00,,,0.00,WeatherDisplay:10.37,2013-01-29 06:53:00,
2013-01-29 07:58:00,51.8,45.2,30.33,SE,134,2.3,2.3,78,0.00,,,0.00,WeatherDisplay:10.37,2013-01-29 06:58:00,
2013-01-29 08:03:00,51.9,45.3,30.33,SE,134,4.0,4.0,78,0.00,,,0.00,WeatherDisplay:10.37,2013-01-29 07:03:00,
2013-01-29 08:08:00,51.9,45.3,30.33,SE,133,3.5,3.5,78,0.00,,,0.00,WeatherDisplay:10.37,2013-01-29 07:08:00,
2013-01-29 08:13:00,51.9,45.3,30.33,SE,143,3.5,3.5,78,0.00,,,0.00,WeatherDisplay:10.37,2013-01-29 07:13:00,
2013-01-29 08:18:00,52.0,45.4,30.33,SE,133,3.5,3.5,78,0.00,,,0.00,WeatherDisplay:10.37,2013-01-29 07:18:00,
2013-01-29 08:23:00,52.4,45.7,30.33,SE,127,3.5,3.5,78,0.00,,,0.00,WeatherDisplay:10.37,2013-01-29 07:23:00,
2013-01-29 08:28:00,52.7,46.0,30.33,SE,141,3.5,3.5,78,0.00,,,0.00,WeatherDisplay:10.37,2013-01-29 07:28:00,
2013-01-29 08:33:00,53.0,46.3,30.33,SE,140,3.5,3.5,78,0.00,,,0.00,WeatherDisplay:10.37,2013-01-29 07:33:00,
2013-01-29 08:38:00,53.3,46.6,30.33,SE,141,3.5,3.5,78,0.00,,,0.00,WeatherDisplay:10.37,2013-01-29 07:38:00,
2013-01-29 08:43:00,53.5,46.8,30.33,SE,125,3.5,3.5,78,0.00,,,0.00,WeatherDisplay:10.37,2013-01-29 07:43:00,
2013-01-29 08:48:00,53.7,47.0,30.34,SE,129,3.5,3.5,78,0.00,,,0.00,WeatherDisplay:10.37,2013-01-29 07:48:00,
2013-01-29 08:53:00,53.9,47.2,30.33,SE,140,4.6,4.6,78,0.00,,,0.00,WeatherDisplay:10.37,2013-01-29 07:53:00,
2013-01-29 08:58:00,54.1,47.4,30.33,SE,131,3.5,3.5,78,0.00,,,0.00,WeatherDisplay:10.37,2013-01-29 07:58:00,
2013-01-29 09:03:00,54.2,47.5,30.33,ESE,118,3.5,3.5,78,0.00,,,0.00,WeatherDisplay:10.37,2013-01-29 08:03:00,
2013-01-29 09:08:00,53.9,47.2,30.33,SSE,150,5.0,5.0,78,0.00,,,0.00,WeatherDisplay:10.37,2013-01-29 08:08:00,
2013-01-29 09:13:00,54.1,47.4,30.34,SE,135,3.5,3.5,78,0.00,,,0.00,WeatherDisplay:10.37,2013-01-29 08:13:00,
2013-01-29 09:18:00,54.3,47.6,30.34,SE,138,4.6,4.6,78,0.00,,,0.00,WeatherDisplay:10.37,2013-01-29 08:18:00,
2013-01-29 09:23:00,54.5,47.8,30.34,SSE,153,4.0,4.0,78,0.00,,,0.00,WeatherDisplay:10.37,2013-01-29 08:23:00,
2013-01-29 09:28:00,54.9,48.2,30.34,SSE,156,5.0,5.0,78,0.00,,,0.00,WeatherDisplay:10.37,2013-01-29 08:28:00,
2013-01-29 09:33:00,54.7,48.0,30.34,South,191,5.0,5.0,78,0.00,,,0.00,WeatherDisplay:10.37,2013-01-29 08:33:00,
2013-01-29 09:38:00,54.8,48.1,30.34,SSE,154,5.8,5.8,78,0.00,,,0.00,WeatherDisplay:10.37,2013-01-29 08:38:00,
2013-01-29 09:43:00,55.2,48.5,30.35,SSE,149,5.8,5.8,78,0.00,,,0.00,WeatherDisplay:10.37,2013-01-29 08:43:00,
2013-01-29 09:48:00,55.3,48.6,30.34,South,170,5.8,5.8,78,0.00,,,0.00,WeatherDisplay:10.37,2013-01-29 08:48:00,
2013-01-29 09:53:00,55.2,48.5,30.35,SSE,166,6.9,6.9,78,0.00,,,0.00,WeatherDisplay:10.37,2013-01-29 08:53:00,
2013-01-29 09:58:00,55.4,48.7,30.35,SSE,149,6.9,6.9,78,0.00,,,0.00,WeatherDisplay:10.37,2013-01-29 08:58:00,
2013-01-29 10:03:00,55.5,48.8,30.35,SE,138,8.1,8.1,78,0.00,,,0.00,WeatherDisplay:10.37,2013-01-29 09:03:00,
2013-01-29 10:08:00,55.7,48.9,30.34,South,170,8.1,8.1,78,0.00,,,0.00,WeatherDisplay:10.37,2013-01-29 09:08:00,
2013-01-29 10:13:00,55.8,49.0,30.35,SSE,147,8.1,8.1,78,0.00,,,0.00,WeatherDisplay:10.37,2013-01-29 09:13:00,
2013-01-29 10:18:00,55.9,49.1,30.34,South,182,3.5,3.5,78,0.00,,,0.00,WeatherDisplay:10.37,2013-01-29 09:18:00,
2013-01-29 10:23:00,55.9,49.1,30.34,SSE,150,6.9,6.9,78,0.00,,,0.00,WeatherDisplay:10.37,2013-01-29 09:23:00,
2013-01-29 10:28:00,55.8,49.0,30.35,South,184,9.2,9.2,78,0.00,,,0.00,WeatherDisplay:10.37,2013-01-29 09:28:00,
2013-01-29 10:33:00,55.9,49.1,30.35,SSE,147,8.1,8.1,78,0.00,,,0.00,WeatherDisplay:10.37,2013-01-29 09:33:00,
2013-01-29 10:38:00,56.3,49.5,30.35,SSW,202,9.2,9.2,78,0.00,,,0.00,WeatherDisplay:10.37,2013-01-29 09:38:00,
2013-01-29 10:43:00,55.8,49.0,30.35,SSE,160,10.0,10.0,78,0.00,,,0.00,WeatherDisplay:10.37,2013-01-29 09:43:00,
2013-01-29 10:48:00,55.7,48.9,30.35,ESE,108,6.9,6.9,78,0.00,,,0.00,WeatherDisplay:10.37,2013-01-29 09:48:00,
2013-01-29 10:53:00,56.1,49.3,30.36,SSE,154,8.1,8.1,78,0.00,,,0.00,WeatherDisplay:10.37,2013-01-29 09:53:00,
2013-01-29 10:58:00,55.9,49.1,30.36,South,175,10.4,10.4,78,0.00,,,0.00,WeatherDisplay:10.37,2013-01-29 09:58:00,
2013-01-29 11:03:00,56.0,49.2,30.35,South,185,7.0,7.0,78,0.00,,,0.00,WeatherDisplay:10.37,2013-01-29 10:03:00,
2013-01-29 11:08:00,56.0,49.2,30.36,South,181,9.2,9.2,78,0.00,,,0.00,WeatherDisplay:10.37,2013-01-29 10:08:00,
2013-01-29 11:13:00,56.3,49.5,30.36,SSE,152,11.0,11.0,78,0.00,,,0.00,WeatherDisplay:10.37,2013-01-29 10:13:00,
2013-01-29 11:18:00,56.4,49.6,30.36,South,178,6.9,6.9,78,0.00,,,0.00,WeatherDisplay:10.37,2013-01-29 10:18:00,
2013-01-29 11:23:00,56.0,49.2,30.36,South,185,11.5,11.5,78,0.00,,,0.00,WeatherDisplay:10.37,2013-01-29 10:23:00,
2013-01-29 11:28:00,56.1,49.3,30.36,SSE,151,8.1,8.1,78,0.00,,,0.00,WeatherDisplay:10.37,2013-01-29 10:28:00,
2013-01-29 11:33:00,56.0,49.2,30.36,SSW,194,11.5,11.5,78,0.00,,,0.00,WeatherDisplay:10.37,2013-01-29 10:33:00,
2013-01-29 11:38:00,56.1,49.3,30.36,South,180,8.1,8.1,78,0.00,,,0.00,WeatherDisplay:10.37,2013-01-29 10:38:00,
2013-01-29 11:43:00,56.3,49.5,30.36,SSE,160,11.5,11.5,78,0.00,,,0.00,WeatherDisplay:10.37,2013-01-29 10:43:00,
2013-01-29 11:48:00,56.0,49.2,30.36,SSE,153,11.5,11.5,78,0.00,,,0.00,WeatherDisplay:10.37,2013-01-29 10:48:00,
2013-01-29 11:53:00,56.1,49.3,30.35,South,178,15.0,15.0,78,0.00,,,0.00,WeatherDisplay:10.37,2013-01-29 10:53:00,
2013-01-29 11:58:00,56.0,49.2,30.35,SSE,151,9.2,9.2,78,0.00,,,0.00,WeatherDisplay:10.37,2013-01-29 10:58:00,
2013-01-29 12:03:00,56.2,49.4,30.35,South,178,11.5,11.5,78,0.00,,,0.00,WeatherDisplay:10.37,2013-01-29 11:03:00,
2013-01-29 12:08:00,56.3,49.5,30.35,South,184,13.0,13.0,78,0.00,,,0.00,WeatherDisplay:10.37,2013-01-29 11:08:00,
2013-01-29 12:13:00,56.0,49.2,30.35,South,187,16.1,16.1,78,0.00,,,0.00,WeatherDisplay:10.37,2013-01-29 11:13:00,
2013-01-29 12:18:00,56.1,49.3,30.35,South,184,12.7,12.7,78,0.00,,,0.00,WeatherDisplay:10.37,2013-01-29 11:18:00,
2013-01-29 12:23:00,56.3,49.5,30.35,SSE,165,11.5,11.5,78,0.00,,,0.00,WeatherDisplay:10.37,2013-01-29 11:23:00,
2013-01-29 12:28:00,56.8,50.0,30.35,SSW,193,11.5,11.5,78,0.00,,,0.00,WeatherDisplay:10.37,2013-01-29 11:28:00,
2013-01-29 12:33:00,56.6,49.8,30.35,South,173,11.5,11.5,78,0.00,,,0.00,WeatherDisplay:10.37,2013-01-29 11:33:00,
2013-01-29 12:38:00,56.5,49.7,30.34,South,170,9.2,9.2,78,0.00,,,0.00,WeatherDisplay:10.37,2013-01-29 11:38:00,
2013-01-29 12:43:00,56.6,49.8,30.34,South,179,13.8,13.8,78,0.00,,,0.00,WeatherDisplay:10.37,2013-01-29 11:43:00,
2013-01-29 12:48:00,56.8,50.0,30.34,South,185,11.5,11.5,78,0.00,,,0.00,WeatherDisplay:10.37,2013-01-29 11:48:00,
2013-01-29 12:53:00,56.9,50.1,30.34,South,169,11.5,11.5,78,0.00,,,0.00,WeatherDisplay:10.37,2013-01-29 11:53:00,
2013-01-29 12:58:00,56.8,50.0,30.34,South,176,11.5,11.5,78,0.00,,,0.00,WeatherDisplay:10.37,2013-01-29 11:58:00,
2013-01-29 13:03:00,56.8,50.0,30.34,South,185,8.1,8.1,78,0.00,,,0.00,WeatherDisplay:10.37,2013-01-29 12:03:00,
2013-01-29 13:08:00,56.8,50.0,30.34,South,172,10.4,10.4,78,0.00,,,0.00,WeatherDisplay:10.37,2013-01-29 12:08:00,
2013-01-29 13:13:00,57.2,50.4,30.33,South,178,9.2,9.2,78,0.00,,,0.00,WeatherDisplay:10.37,2013-01-29 12:13:00,
2013-01-29 13:18:00,56.8,50.0,30.33,SSE,154,9.2,9.2,78,0.00,,,0.00,WeatherDisplay:10.37,2013-01-29 12:18:00,
2013-01-29 13:23:00,57.1,50.3,30.33,SE,138,6.9,6.9,78,0.00,,,0.00,WeatherDisplay:10.37,2013-01-29 12:23:00,
2013-01-29 13:28:00,57.2,50.4,30.33,SSE,166,8.1,8.1,78,0.00,,,0.00,WeatherDisplay:10.37,2013-01-29 12:28:00,
2013-01-29 13:33:00,57.5,50.7,30.32,South,188,11.5,11.5,78,0.00,,,0.00,WeatherDisplay:10.37,2013-01-29 12:33:00,
2013-01-29 13:38:00,57.4,50.6,30.32,SSW,194,10.4,10.4,78,0.00,,,0.00,WeatherDisplay:10.37,2013-01-29 12:38:00,
2013-01-29 13:43:00,57.9,51.1,30.32,SSW,200,6.9,6.9,78,0.00,,,0.00,WeatherDisplay:10.37,2013-01-29 12:43:00,
2013-01-29 13:48:00,58.2,51.4,30.32,SSW,208,11.0,11.0,78,0.00,,,0.00,WeatherDisplay:10.37,2013-01-29 12:48:00,
2013-01-29 13:53:00,57.8,51.0,30.32,SSW,200,8.1,8.1,78,0.00,,,0.00,WeatherDisplay:10.37,2013-01-29 12:53:00,
2013-01-29 13:58:00,58.1,51.3,30.32,South,185,7.0,7.0,78,0.00,,,0.00,WeatherDisplay:10.37,2013-01-29 12:58:00,
2013-01-29 14:03:00,58.2,51.4,30.31,South,169,9.0,9.0,78,0.00,,,0.00,WeatherDisplay:10.37,2013-01-29 13:03:00,
2013-01-29 14:08:00,57.7,50.9,30.31,SSW,199,13.8,13.8,78,0.00,,,0.00,WeatherDisplay:10.37,2013-01-29 13:08:00,
2013-01-29 14:13:00,58.2,51.4,30.30,SSW,210,13.0,13.0,78,0.00,,,0.00,WeatherDisplay:10.37,2013-01-29 13:13:00,
2013-01-29 14:18:00,58.4,51.6,30.30,SSE,165,11.5,11.5,78,0.00,,,0.00,WeatherDisplay:10.37,2013-01-29 13:18:00,
2013-01-29 14:23:00,58.2,51.4,30.30,SW,218,9.2,9.2,78,0.00,,,0.00,WeatherDisplay:10.37,2013-01-29 13:23:00,
2013-01-29 14:28:00,58.6,51.8,30.30,SSW,197,8.1,8.1,78,0.00,,,0.00,WeatherDisplay:10.37,2013-01-29 13:28:00,
2013-01-29 14:33:00,58.5,51.7,30.30,West,268,11.5,11.5,78,0.00,,,0.00,WeatherDisplay:10.37,2013-01-29 13:33:00,
2013-01-29 14:38:00,58.5,51.7,30.30,WSW,237,8.1,8.1,78,0.00,,,0.00,WeatherDisplay:10.37,2013-01-29 13:38:00,
2013-01-29 14:43:00,58.4,51.6,30.30,SW,234,10.0,10.0,78,0.00,,,0.00,WeatherDisplay:10.37,2013-01-29 13:43:00,
2013-01-29 14:48:00,58.3,51.5,30.30,SSW,204,10.4,10.4,78,0.00,,,0.00,WeatherDisplay:10.37,2013-01-29 13:48:00,
2013-01-29 14:53:00,59.1,52.2,30.30,SW,217,7.0,7.0,78,0.00,,,0.00,WeatherDisplay:10.37,2013-01-29 13:53:00,
2013-01-29 14:58:00,58.7,51.9,30.30,SW,214,9.0,9.0,78,0.00,,,0.00,WeatherDisplay:10.37,2013-01-29 13:58:00,
2013-01-29 15:03:00,58.7,51.9,30.30,West,262,9.2,9.2,78,0.00,,,0.00,WeatherDisplay:10.37,2013-01-29 14:03:00,
2013-01-29 15:08:00,58.0,51.2,30.30,SW,225,13.8,13.8,78,0.00,,,0.00,WeatherDisplay:10.37,2013-01-29 14:08:00,
2013-01-29 15:13:00,57.9,51.1,30.30,SW,228,10.4,10.4,78,0.00,,,0.00,WeatherDisplay:10.37,2013-01-29 14:13:00,
2013-01-29 15:18:00,58.0,51.2,30.30,West,260,10.4,10.4,78,0.00,,,0.00,WeatherDisplay:10.37,2013-01-29 14:18:00,
2013-01-29 15:23:00,58.2,51.4,30.30,WSW,252,12.7,12.7,78,0.00,,,0.00,WeatherDisplay:10.37,2013-01-29 14:23:00,
2013-01-29 15:28:00,58.3,51.5,30.30,SW,233,9.2,9.2,78,0.00,,,0.00,WeatherDisplay:10.37,2013-01-29 14:28:00,
2013-01-29 15:33:00,58.4,51.6,30.30,WSW,241,9.2,9.2,78,0.00,,,0.00,WeatherDisplay:10.37,2013-01-29 14:33:00,
2013-01-29 15:38:00,58.0,51.2,30.30,WSW,245,10.4,10.4,78,0.00,,,0.00,WeatherDisplay:10.37,2013-01-29 14:38:00,
2013-01-29 15:43:00,57.8,51.0,30.30,West,259,9.2,9.2,78,0.00,,,0.00,WeatherDisplay:10.37,2013-01-29 14:43:00,
2013-01-29 15:48:00,57.6,50.8,30.30,SW,235,11.5,11.5,78,0.00,,,0.00,WeatherDisplay:10.37,2013-01-29 14:48:00,
2013-01-29 15:53:00,57.5,50.7,30.31,West,262,10.4,10.4,78,0.00,,,0.00,WeatherDisplay:10.37,2013-01-29 14:53:00,
2013-01-29 15:58:00,57.2,50.4,30.31,WSW,244,8.1,8.4,78,0.00,,,0.00,WeatherDisplay:10.37,2013-01-29 14:58:00,
2013-01-29 16:03:00,57.2,50.4,30.31,WSW,251,9.2,9.2,78,0.00,,,0.00,WeatherDisplay:10.37,2013-01-29 15:03:00,
2013-01-29 16:08:00,57.2,50.4,30.31,WSW,246,11.0,11.0,78,0.00,,,0.00,WeatherDisplay:10.37,2013-01-29 15:08:00,
2013-01-29 16:13:00,57.3,50.5,30.31,WSW,248,11.5,11.5,78,0.00,,,0.00,WeatherDisplay:10.37,2013-01-29 15:13:00,
2013-01-29 16:18:00,57.1,50.3,30.30,WSW,243,11.5,11.5,78,0.00,,,0.00,WeatherDisplay:10.37,2013-01-29 15:18:00,
2013-01-29 16:23:00,57.1,50.3,30.30,West,278,10.4,10.4,78,0.00,,,0.00,WeatherDisplay:10.37,2013-01-29 15:23:00,
2013-01-29 16:28:00,56.8,50.0,30.30,SW,222,11.5,11.5,78,0.00,,,0.00,WeatherDisplay:10.37,2013-01-29 15:28:00,
2013-01-29 16:33:00,56.6,49.8,30.30,West,261,9.2,9.2,78,0.00,,,0.00,WeatherDisplay:10.37,2013-01-29 15:33:00,
2013-01-29 16:38:00,56.5,49.7,30.31,WSW,247,11.5,11.5,78,0.00,,,0.00,WeatherDisplay:10.37,2013-01-29 15:38:00,
2013-01-29 16:43:00,56.3,49.5,30.30,WSW,239,10.4,10.4,78,0.00,,,0.00,WeatherDisplay:10.37,2013-01-29 15:43:00,
2013-01-29 16:48:00,55.9,49.1,30.30,WSW,251,10.4,10.4,78,0.00,,,0.00,WeatherDisplay:10.37,2013-01-29 15:48:00,
2013-01-29 16:53:00,55.7,48.9,30.30,WSW,241,11.5,11.5,78,0.00,,,0.00,WeatherDisplay:10.37,2013-01-29 15:53:00,
2013-01-29 16:58:00,55.6,48.8,30.30,WSW,241,11.5,11.5,78,0.00,,,0.00,WeatherDisplay:10.37,2013-01-29 15:58:00,
2013-01-29 17:03:00,56.0,49.2,30.30,SW,235,9.2,9.2,78,0.00,,,0.00,WeatherDisplay:10.37,2013-01-29 16:03:00,
2013-01-29 17:08:00,56.1,49.3,30.30,SW,233,8.1,8.1,78,0.00,,,0.00,WeatherDisplay:10.37,2013-01-29 16:08:00,
2013-01-29 17:13:00,56.3,49.5,30.30,SW,236,5.8,5.8,78,0.00,,,0.00,WeatherDisplay:10.37,2013-01-29 16:13:00,
2013-01-29 17:18:00,56.4,49.6,30.30,WSW,239,7.0,7.0,78,0.00,,,0.00,WeatherDisplay:10.37,2013-01-29 16:18:00,
2013-01-29 17:23:00,55.6,48.8,30.30,WSW,255,8.1,8.1,78,0.00,,,0.00,WeatherDisplay:10.37,2013-01-29 16:23:00,
2013-01-29 17:28:00,55.4,48.7,30.30,WSW,252,9.2,9.2,78,0.00,,,0.00,WeatherDisplay:10.37,2013-01-29 16:28:00,
2013-01-29 17:33:00,55.5,48.8,30.30,SW,215,8.1,8.1,78,0.00,,,0.00,WeatherDisplay:10.37,2013-01-29 16:33:00,
2013-01-29 17:38:00,55.3,48.6,30.30,WSW,237,8.1,8.1,78,0.00,,,0.00,WeatherDisplay:10.37,2013-01-29 16:38:00,
2013-01-29 17:43:00,55.2,48.5,30.30,WSW,247,10.4,10.4,78,0.00,,,0.00,WeatherDisplay:10.37,2013-01-29 16:43:00,
2013-01-29 17:48:00,54.8,48.1,30.31,SW,222,8.1,8.1,78,0.00,,,0.00,WeatherDisplay:10.37,2013-01-29 16:48:00,
2013-01-29 17:53:00,54.5,47.8,30.31,SW,230,7.0,7.0,78,0.00,,,0.00,WeatherDisplay:10.37,2013-01-29 16:53:00,
2013-01-29 17:58:00,54.1,47.4,30.31,West,265,5.8,5.8,78,0.00,,,0.00,WeatherDisplay:10.37,2013-01-29 16:58:00,
2013-01-29 18:03:00,53.7,47.0,30.31,West,261,5.8,5.8,78,0.00,,,0.00,WeatherDisplay:10.37,2013-01-29 17:03:00,
2013-01-29 18:08:00,53.5,46.8,30.31,West,260,5.8,5.8,78,0.00,,,0.00,WeatherDisplay:10.37,2013-01-29 17:08:00,
2013-01-29 18:13:00,53.3,46.6,30.31,West,269,6.9,6.9,78,0.00,,,0.00,WeatherDisplay:10.37,2013-01-29 17:13:00,
2013-01-29 18:18:00,53.2,46.5,30.31,WSW,248,6.0,6.0,78,0.00,,,0.00,WeatherDisplay:10.37,2013-01-29 17:18:00,
2013-01-29 18:23:00,53.0,46.3,30.31,WSW,242,6.9,6.9,78,0.00,,,0.00,WeatherDisplay:10.37,2013-01-29 17:23:00,
2013-01-29 18:28:00,53.0,46.3,30.31,WSW,239,5.8,5.8,78,0.00,,,0.00,WeatherDisplay:10.37,2013-01-29 17:28:00,
2013-01-29 18:33:00,53.1,46.4,30.31,WSW,237,5.8,5.8,78,0.00,,,0.00,WeatherDisplay:10.37,2013-01-29 17:33:00,
2013-01-29 18:38:00,53.1,46.4,30.31,WSW,238,6.9,6.9,78,0.00,,,0.00,WeatherDisplay:10.37,2013-01-29 17:38:00,
2013-01-29 18:43:00,53.1,46.4,30.31,SW,236,6.9,6.9,78,0.00,,,0.00,WeatherDisplay:10.37,2013-01-29 17:43:00,
2013-01-29 18:48:00,53.0,46.3,30.31,SW,235,8.1,8.1,78,0.00,,,0.00,WeatherDisplay:10.37,2013-01-29 17:48:00,
2013-01-29 18:53:00,52.9,46.2,30.31,WSW,242,6.9,6.9,78,0.00,,,0.00,WeatherDisplay:10.37,2013-01-29 17:53:00,
2013-01-29 18:58:00,52.8,46.1,30.31,West,259,5.0,5.0,78,0.00,,,0.00,WeatherDisplay:10.37,2013-01-29 17:58:00,
2013-01-29 19:03:00,52.8,46.1,30.32,WSW,252,6.0,6.0,78,0.00,,,0.00,WeatherDisplay:10.37,2013-01-29 18:03:00,
2013-01-29 19:08:00,52.7,46.0,30.31,West,261,5.8,5.8,78,0.00,,,0.00,WeatherDisplay:10.37,2013-01-29 18:08:00,
2013-01-29 19:13:00,52.7,46.0,30.31,WSW,256,6.0,6.0,78,0.00,,,0.00,WeatherDisplay:10.37,2013-01-29 18:13:00,
2013-01-29 19:18:00,52.7,46.0,30.32,WSW,248,9.2,9.2,78,0.00,,,0.00,WeatherDisplay:10.37,2013-01-29 18:18:00,
2013-01-29 19:23:00,52.6,45.9,30.32,WSW,251,6.9,6.9,78,0.00,,,0.00,WeatherDisplay:10.37,2013-01-29 18:23:00,
2013-01-29 19:28:00,52.5,45.8,30.32,WSW,253,8.1,8.1,78,0.00,,,0.00,WeatherDisplay:10.37,2013-01-29 18:28:00,
2013-01-29 19:33:00,52.5,45.8,30.32,WSW,251,8.1,8.1,78,0.00,,,0.00,WeatherDisplay:10.37,2013-01-29 18:33:00,
2013-01-29 19:38:00,52.5,45.8,30.32,West,262,6.9,6.9,78,0.00,,,0.00,WeatherDisplay:10.37,2013-01-29 18:38:00,
2013-01-29 19:43:00,52.6,45.9,30.32,West,259,6.0,6.0,78,0.00,,,0.00,WeatherDisplay:10.37,2013-01-29 18:43:00,
2013-01-29 19:48:00,52.5,45.8,30.33,WSW,253,6.9,6.9,78,0.00,,,0.00,WeatherDisplay:10.37,2013-01-29 18:48:00,
2013-01-29 19:53:00,52.5,45.8,30.32,WSW,244,8.1,8.1,78,0.00,,,0.00,WeatherDisplay:10.37,2013-01-29 18:53:00,
2013-01-29 19:58:00,52.6,45.9,30.32,West,264,6.9,6.9,78,0.00,,,0.00,WeatherDisplay:10.37,2013-01-29 18:58:00,
2013-01-29 20:03:00,52.6,45.9,30.32,West,260,6.9,6.9,78,0.00,,,0.00,WeatherDisplay:10.37,2013-01-29 19:03:00,
2013-01-29 20:08:00,52.7,46.0,30.32,WSW,249,8.1,8.1,78,0.00,,,0.00,WeatherDisplay:10.37,2013-01-29 19:08:00,
2013-01-29 20:13:00,52.5,45.8,30.32,WSW,251,7.0,7.0,78,0.00,,,0.00,WeatherDisplay:10.37,2013-01-29 19:13:00,
2013-01-29 20:18:00,52.4,45.7,30.32,WSW,253,10.4,10.4,78,0.00,,,0.00,WeatherDisplay:10.37,2013-01-29 19:18:00,
2013-01-29 20:23:00,52.4,45.7,30.32,WSW,246,10.4,10.4,78,0.00,,,0.00,WeatherDisplay:10.37,2013-01-29 19:23:00,
2013-01-29 20:28:00,52.3,45.6,30.33,WSW,239,10.4,10.4,78,0.00,,,0.00,WeatherDisplay:10.37,2013-01-29 19:28:00,
2013-01-29 20:33:00,52.4,45.7,30.32,WSW,242,11.5,11.5,78,0.00,,,0.00,WeatherDisplay:10.37,2013-01-29 19:33:00,
2013-01-29 20:38:00,52.2,45.5,30.32,SW,233,11.5,11.5,78,0.00,,,0.00,WeatherDisplay:10.37,2013-01-29 19:38:00,
2013-01-29 20:43:00,52.1,45.4,30.32,WSW,245,9.2,9.2,78,0.00,,,0.00,WeatherDisplay:10.37,2013-01-29 19:43:00,
2013-01-29 20:48:00,52.1,45.4,30.32,WSW,242,11.5,11.5,78,0.00,,,0.00,WeatherDisplay:10.37,2013-01-29 19:48:00,
2013-01-29 20:53:00,52.2,45.5,30.32,WSW,252,10.4,10.4,78,0.00,,,0.00,WeatherDisplay:10.37,2013-01-29 19:53:00,
2013-01-29 20:58:00,52.1,45.4,30.32,SW,235,11.0,11.0,78,0.00,,,0.00,WeatherDisplay:10.37,2013-01-29 19:58:00,
2013-01-29 21:01:00,52.1,45.4,30.32,SW,234,10.4,10.4,78,0.00,,,0.00,WeatherDisplay:10.37,2013-01-29 20:01:00,
2013-01-29 21:06:00,52.2,45.5,30.32,WSW,238,11.5,11.5,78,0.00,,,0.00,WeatherDisplay:10.37,2013-01-29 20:06:00,
2013-01-29 21:11:00,52.1,45.4,30.32,WSW,257,9.2,9.2,78,0.00,,,0.00,WeatherDisplay:10.37,2013-01-29 20:11:00,
2013-01-29 21:16:00,52.0,45.4,30.32,WSW,241,10.4,10.4,78,0.00,,,0.00,WeatherDisplay:10.37,2013-01-29 20:16:00,
2013-01-29 21:21:00,52.2,45.5,30.32,WSW,241,11.5,11.5,78,0.00,,,0.00,WeatherDisplay:10.37,2013-01-29 20:21:00,
2013-01-29 21:26:00,52.4,45.7,30.32,WSW,238,11.5,11.5,78,0.00,,,0.00,WeatherDisplay:10.37,2013-01-29 20:26:00,
2013-01-29 21:31:00,52.3,45.6,30.32,SW,235,10.4,10.4,78,0.00,,,0.00,WeatherDisplay:10.37,2013-01-29 20:31:00,
2013-01-29 21:36:00,52.3,45.6,30.32,WSW,243,11.0,11.0,78,0.00,,,0.00,WeatherDisplay:10.37,2013-01-29 20:36:00,
2013-01-29 21:41:00,52.2,45.5,30.32,WSW,257,9.2,9.2,78,0.00,,,0.00,WeatherDisplay:10.37,2013-01-29 20:41:00,
2013-01-29 21:46:00,52.2,45.5,30.32,WSW,241,9.2,9.2,78,0.00,,,0.00,WeatherDisplay:10.37,2013-01-29 20:46:00,
2013-01-29 21:51:00,52.1,45.4,30.32,West,271,9.2,9.2,78,0.00,,,0.00,WeatherDisplay:10.37,2013-01-29 20:51:00,
2013-01-29 21:56:00,52.2,45.5,30.31,WSW,237,9.2,9.2,78,0.00,,,0.00,WeatherDisplay:10.37,2013-01-29 20:56:00,
2013-01-29 22:01:00,52.2,45.5,30.31,WSW,250,10.4,10.4,78,0.00,,,0.00,WeatherDisplay:10.37,2013-01-29 21:01:00,
2013-01-29 22:06:00,52.2,45.5,30.31,West,261,10.4,10.4,78,0.00,,,0.00,WeatherDisplay:10.37,2013-01-29 21:06:00,
2013-01-29 22:11:00,52.1,45.4,30.32,WSW,254,11.5,11.5,78,0.00,,,0.00,WeatherDisplay:10.37,2013-01-29 21:11:00,
2013-01-29 22:16:00,52.1,45.4,30.32,WSW,250,10.4,10.4,78,0.00,,,0.00,WeatherDisplay:10.37,2013-01-29 21:16:00,
2013-01-29 22:21:00,52.2,45.5,30.32,West,271,10.4,10.4,78,0.00,,,0.00,WeatherDisplay:10.37,2013-01-29 21:21:00,
2013-01-29 22:26:00,52.0,45.4,30.32,West,260,9.2,9.2,78,0.00,,,0.00,WeatherDisplay:10.37,2013-01-29 21:26:00,
2013-01-29 22:31:00,52.0,45.4,30.32,WSW,252,10.4,10.4,78,0.00,,,0.00,WeatherDisplay:10.37,2013-01-29 21:31:00,
2013-01-29 22:36:00,52.0,45.4,30.32,West,278,9.2,9.2,78,0.00,,,0.00,WeatherDisplay:10.37,2013-01-29 21:36:00,
2013-01-29 22:41:00,52.0,45.4,30.32,West,264,8.1,8.1,78,0.00,,,0.00,WeatherDisplay:10.37,2013-01-29 21:41:00,
2013-01-29 22:46:00,51.9,45.3,30.32,WSW,247,8.0,8.0,78,0.00,,,0.00,WeatherDisplay:10.37,2013-01-29 21:46:00,
2013-01-29 22:51:00,52.0,45.4,30.32,WSW,251,9.2,9.2,78,0.00,,,0.00,WeatherDisplay:10.37,2013-01-29 21:51:00,
2013-01-29 22:56:00,52.0,45.4,30.32,West,268,9.2,9.2,78,0.00,,,0.00,WeatherDisplay:10.37,2013-01-29 21:56:00,
2013-01-29 23:01:00,51.9,45.3,30.32,WSW,257,8.1,8.1,78,0.00,,,0.00,WeatherDisplay:10.37,2013-01-29 22:01:00,
2013-01-29 23:06:00,51.9,45.3,30.32,WSW,258,10.4,10.4,78,0.00,,,0.00,WeatherDisplay:10.37,2013-01-29 22:06:00,
2013-01-29 23:11:00,51.9,45.3,30.32,West,268,10.4,10.4,78,0.00,,,0.00,WeatherDisplay:10.37,2013-01-29 22:11:00,
2013-01-29 23:16:00,51.8,45.2,30.32,West,269,9.2,9.2,78,0.00,,,0.00,WeatherDisplay:10.37,2013-01-29 22:16:00,
2013-01-29 23:21:00,51.8,45.2,30.32,West,259,9.2,9.2,78,0.00,,,0.00,WeatherDisplay:10.37,2013-01-29 22:21:00,
2013-01-29 23:26:00,51.7,45.1,30.32,West,266,5.8,5.8,78,0.00,,,0.00,WeatherDisplay:10.37,2013-01-29 22:26:00,
2013-01-29 23:31:00,51.8,45.2,30.32,West,266,8.1,8.1,78,0.00,,,0.00,WeatherDisplay:10.37,2013-01-29 22:31:00,
2013-01-29 23:36:00,51.9,45.3,30.32,WSW,253,9.2,9.2,78,0.00,,,0.00,WeatherDisplay:10.37,2013-01-29 22:36:00,
2013-01-29 23:41:00,51.7,45.1,30.31,WSW,244,8.1,8.1,78,0.00,,,0.00,WeatherDisplay:10.37,2013-01-29 22:41:00,
2013-01-29 23:46:00,51.7,45.1,30.31,West,276,9.2,9.2,78,0.00,,,0.00,WeatherDisplay:10.37,2013-01-29 22:46:00,
2013-01-29 23:51:00,51.6,45.0,30.32,West,263,9.2,9.2,78,0.00,,,0.00,WeatherDisplay:10.37,2013-01-29 22:51:00,
2013-01-29 23:56:00,51.5,44.9,30.32,WNW,291,9.2,9.2,78,0.00,,,0.00,WeatherDisplay:10.37,2013-01-29 22:56:00,